FENGYUN 1C DEB, 31836

Orbit data source: Space-Track

FENGYUN 1C DEB, 31836 is space debris in SSO originally from a launch on Mon, 10 May 1999 UTC launched from the Taiyaun Space Center, China (TSC). Fengyun 1C debris stems from the Chinese weather satellite Fengyun-1C, which was intentionally destroyed by a Chinese anti-satellite missile in 2007. This event dramatically increased the amount of space debris, with thousands of trackable fragments posing hazards to satellites and human spaceflight. The Fengyun 1C debris cloud has become a focal point in discussions about space sustainability and the need for international regulations to prevent the creation of new debris.

Loading next visibility...
Identifier
31836, 1999-025CJA
Orbit
SSO
Country
Flag of CNCN / PRC
Related business
Manufacturer
Unknown
Mission
Spacecraft
Bus & Motor
Unknown
Mass
Unknown
Launch date (UTC)
1999-05-10 (27 years ago)
Launch vehicle
Unknown
Launch site
Taiyaun Space Center, China (TSC)
Object type
Payload
Rocket body
Debris
Shape & HBR
Unknown shape, 0.1 m
Radar Cross Section
Small (<0.1 m²)

Expand to show TLE details & history
Last TLE update: 3 days ago

TLE from 3 days ago
0 FENGYUN 1C DEB
1 31836U 99025CJA 26143.43481066  .00002312  00000-0  12282-2 0  9999
2 31836  98.6229 107.0111 0113591  18.0780 342.4381 14.11204942636833
Epoch: 2026-05-23T10:26Z
TLE epoch observation values (Epoch: 2026-05-23T10:26:07.641Z)
Latitude
0.00001°
Longitude
69.42791°
Altitude
779.892 km
Speed
7.504 km/s
True Right ascension
07h 08m 02s
True Declination
0° 00' 00"
Sunlit
Object was in daylight at epoch
Visualization orbit readout
Latitude
Unknown
Longitude
Unknown
Altitude
Unknown
Speed
Unknown
Apparent Right ascension
Unknown
Apparent Declination
Unknown
Sunlit
N/A
Visualization observer readout
Local Sidereal Time
16:32:29
Azimuth
Unknown
Elevation
Unknown
Doppler factor
Unknown
Orbital elements
Apogee altitude
934.55 km
Perigee altitude
770.284 km
Semi-major axis
7,230.554 km
Eccentricity
0.01136
Inclination
98.6229°
RAAN
107.0111°
Arg. of periapsis
18.078°
True anomaly
342.03996°
Mean anomaly
342.4381°
Eccentric anomaly
342.23957°
Mean motion
3.53009 °/min
Orbital period
101.98 mins
BSTAR
0.0012282
Loading maneuver chart data...
Computing Atmospheric mass density...

Documentation

Showing up to 5 results
|